Powrót do katalogu

STARLINK-5738

AktywnyŁącznośćVLEO
NORAD 55573·PAYLOAD·🇺🇸 United States

Wystrzelony Feb 12, 2023 z Cape Canaveral Space Force Station

Loading…

Następne Przeloty (najbliższe 24 godziny)

TLE

ŚwieżeSource: CelesTrak SupGP

Epoka: Sep 14, 2026, 21:42 UTC

1 55573C 23020E   26257.90465278  .00001690  00000+0  61210-4 0  2571
2 55573  43.0041  19.9383 0001379 272.2508  23.8542 15.27581311    17

Śledź STARLINK-5738 w czasie rzeczywistym z AllMySat

Download on the App Store